Weather History for Big Delta, AK

Change the Weather History Date:

Saturday, November 17, 2012

  Actual Average Record
Temperature  
Mean Temperature -12 °F -  
Max Temperature -2 °F 15 °F 39 °F (2000)
Min Temperature -22 °F 5 °F -31 °F (2006)
Degree Days  
Heating Degree Days 77    
Moisture  
Dew Point -17 °F    
Average Humidity 72    
Maximum Humidity 82    
Minimum Humidity 54    
Precipitation  
Precipitation 0.00 in - - ()
Sea Level Pressure  
Sea Level Pressure 29.87 in    
Wind  
Wind Speed 6 mph (East)    
Max Wind Speed 18 mph    
Max Gust Speed 30 mph    
Visibility 10 miles    
Events      
Averages and records for this station are not official NWS values.
T = Trace of Precipitation, MM = Missing Value Source: NWS Daily Summary

Daily Weather History Graph

Daily Weather History Graph

Search for Another Location

Airport:

Trip Planner

Search our weather history database for the weather conditions in past years. The results will help you decide how hot, cold, wet, or windy it might be!

Date:

Astronomy

Nov. 17, 2012 Rise Set
Actual Time 9:19 AM AKST 3:36 PM AKST
Civil Twilight 8:17 AM AKST 4:37 PM AKST
Nautical Twilight 7:16 AM AKST 5:38 PM AKST
Astronomical Twilight 6:20 AM AKST 6:34 PM AKST
Moon 1:06 PM AKST (11/17) 8:07 PM AKST (11/17)
Length of Visible Light 8h 19m
Length of Day
6h 17m
Waxing Crescent, 21% of the Moon is Illuminated
Nov 17
Waxing Crescent
Nov 20
First Quarter
Nov 28
Full
Dec 6
Last Quarter
Dec 12
New

Hourly Weather History & Observations

Time (AKST) Temp. Windchill Dew Point Humidity Pressure Visibility Wind Dir Wind Speed Gust Speed Precip Events Conditions
12:53 AM -16.1 °F - -20.0 °F 82% 30.12 in 8.0 mi Calm Calm - N/A   Overcast
1:53 AM -18.0 °F - -22.0 °F 82% 30.09 in 10.0 mi Calm Calm - N/A   Partly Cloudy
2:53 AM -18.9 °F - -24.0 °F 78% 30.07 in 10.0 mi Calm Calm - N/A   Overcast
3:53 AM -18.0 °F - -23.1 °F 78% 30.04 in 10.0 mi Calm Calm - N/A   Overcast
4:53 AM -18.9 °F - -24.0 °F 78% 30.02 in 10.0 mi Calm Calm - N/A   Overcast
5:53 AM -20.0 °F -33.3 °F -24.0 °F 82% 30.00 in 10.0 mi North 4.6 mph - N/A   Partly Cloudy
6:53 AM -20.9 °F - -25.1 °F 81% 29.98 in 10.0 mi Calm Calm - N/A   Scattered Clouds
7:53 AM -20.9 °F - -26.0 °F 77% 29.96 in 10.0 mi Calm Calm - N/A   Mostly Cloudy
8:53 AM -18.0 °F -28.5 °F -24.0 °F 74% 29.95 in 10.0 mi NNE 3.5 mph - N/A   Overcast
9:53 AM -15.0 °F -29.3 °F -20.0 °F 78% 29.92 in 10.0 mi ENE 5.8 mph - N/A   Mostly Cloudy
10:53 AM -9.0 °F -30.2 °F -15.0 °F 75% 29.90 in 10.0 mi East 13.8 mph - N/A   Scattered Clouds
11:53 AM -8.0 °F -28.8 °F -14.1 °F 75% 29.87 in 10.0 mi ESE 13.8 mph - N/A   Scattered Clouds
12:53 PM -5.1 °F -25.9 °F -13.0 °F 69% 29.84 in 10.0 mi ESE 15.0 mph - N/A   Scattered Clouds
1:53 PM -6.0 °F -26.3 °F -13.0 °F 72% 29.81 in 10.0 mi ESE 13.8 mph - N/A   Scattered Clouds
2:53 PM -5.1 °F -26.6 °F -13.0 °F 69% 29.79 in 10.0 mi ESE 16.1 mph - N/A   Scattered Clouds
3:53 PM -5.1 °F -27.2 °F -13.0 °F 69% 29.78 in 10.0 mi East 17.3 mph - N/A   Scattered Clouds
4:53 PM -5.1 °F -26.6 °F -13.0 °F 69% 29.75 in 10.0 mi East 16.1 mph - N/A   Mostly Cloudy
5:53 PM -5.1 °F -26.6 °F -13.0 °F 69% 29.75 in 10.0 mi ESE 16.1 mph - N/A   Mostly Cloudy
6:53 PM -5.1 °F -25.9 °F -11.9 °F 72% 29.74 in 10.0 mi ESE 15.0 mph 23.0 mph N/A   Mostly Cloudy
7:53 PM -4.0 °F -25.2 °F -11.9 °F 69% 29.73 in 10.0 mi ESE 16.1 mph - N/A   Overcast
8:53 PM -2.9 °F -23.1 °F -11.0 °F 68% 29.71 in 10.0 mi ESE 15.0 mph - N/A   Overcast
9:53 PM -2.9 °F -23.8 °F -11.0 °F 68% 29.70 in 10.0 mi ESE 16.1 mph 29.9 mph N/A   Overcast
10:53 PM -2.9 °F -25.0 °F -11.9 °F 65% 29.70 in 10.0 mi ESE 18.4 mph 24.2 mph N/A   Partly Cloudy
11:53 PM -4.0 °F -26.4 °F -11.9 °F 69% 29.70 in 10.0 mi ESE 18.4 mph - N/A   Clear